Location: UBC Liquid-Mirror Observatory
(49.2876°N, 122.5728°W)
Time: 08:13:32
(UTC-08:00)

KITSAT 1 - Visible Passes

Search period start: 04 December 2016 00:00
Search period end: 14 December 2016 00:00
Orbit: 1313 x 1317 km, 66.1° (Epoch: 04 December)

Date Brightness Start Highest point End Pass type
(mag) Time Alt. Az. Time Alt. Az. Time Alt. Az.
04 Dec 12.4 01:54:39 16° NE 01:54:39 16° NE 01:56:30 10° NE visible
04 Dec 11.5 03:46:38 28° N 03:48:21 31° NNE 03:55:22 10° E visible
04 Dec 10.4 05:38:37 17° NW 05:45:10 73° NE 05:53:15 10° SE visible
05 Dec 12.2 02:10:30 18° NE 02:10:30 18° NE 02:13:16 10° NE visible
05 Dec 11.3 04:02:30 30° N 04:04:58 36° NNE 04:12:18 10° E visible
05 Dec 10.2 05:54:30 16° NW 06:01:18 86° SW 06:09:23 10° SSE visible
06 Dec 12.1 02:26:25 21° NE 02:26:25 21° NE 02:30:12 10° ENE visible
06 Dec 11.0 04:18:24 32° N 04:21:28 44° NE 04:29:08 10° ESE visible
06 Dec 10.3 06:10:24 15° NW 06:17:19 65° WSW 06:25:15 10° SSE visible
07 Dec 11.9 02:42:22 25° NE 02:42:22 25° NE 02:47:12 10° ENE visible
07 Dec 10.7 04:34:22 34° NNW 04:37:51 56° NE 04:45:46 10° ESE visible
07 Dec 10.5 06:26:22 13° NW 06:33:12 47° WSW 06:40:47 10° S visible
08 Dec 11.6 02:58:22 29° NE 02:58:22 29° NE 03:04:13 10° E visible
08 Dec 10.3 04:50:23 36° NNW 04:54:07 72° NE 05:02:11 10° SE visible
08 Dec 10.9 06:42:23 12° NW 06:48:58 34° WSW 06:55:57 10° S visible
09 Dec 11.3 03:14:27 35° NE 03:14:27 35° NE 03:21:12 10° E visible
09 Dec 10.1 05:06:28 36° NW 05:10:15 88° SW 05:18:21 10° SSE visible
09 Dec 11.3 06:58:37 10° NW 07:04:37 23° WSW 07:10:36 10° SSW visible
09 Dec 12.0 19:35:19 10° S 19:36:14 14° S 19:36:14 14° S visible
10 Dec 12.6 01:38:35 11° ENE 01:38:35 11° ENE 01:39:04 10° ENE visible
10 Dec 11.0 03:30:36 44° NE 03:30:36 44° NE 03:38:01 10° ESE visible
10 Dec 10.2 05:22:37 35° NW 05:26:16 67° WSW 05:34:13 10° SSE visible
10 Dec 11.6 07:15:50 10° WNW 07:20:08 16° W 07:24:26 10° SW visible
10 Dec 11.7 19:50:34 10° S 19:52:54 21° S 19:52:54 21° S visible
11 Dec 12.5 01:54:48 14° ENE 01:54:48 14° ENE 01:56:04 10° ENE visible
11 Dec 10.6 03:46:49 55° NE 03:46:49 55° NE 03:54:41 10° ESE visible
11 Dec 10.4 05:38:50 32° WNW 05:42:10 48° WSW 05:49:47 10° S visible
11 Dec 11.8 18:15:37 10° SE 18:17:29 14° ESE 18:17:29 14° ESE visible
11 Dec 11.4 20:06:11 10° SSW 20:09:32 28° SSW 20:09:32 28° SSW visible
12 Dec 12.3 02:11:06 17° ENE 02:11:06 17° ENE 02:13:06 10° E visible
12 Dec 10.3 04:03:07 71° NE 04:03:07 71° NE 04:11:07 10° SE visible
12 Dec 10.8 05:55:09 28° WNW 05:57:56 35° WSW 06:04:59 10° S visible
12 Dec 11.3 18:29:37 10° SSE 18:34:05 23° ESE 18:34:05 23° ESE visible
12 Dec 11.3 20:22:06 10° SW 20:26:08 34° SW 20:26:08 34° SW visible
13 Dec 12.1 02:27:28 20° E 02:27:28 20° E 02:30:05 10° E visible
13 Dec 10.1 04:19:30 85° SSE 04:19:30 85° SSE 04:27:18 10° SE visible
13 Dec 11.2 06:11:32 22° W 06:13:36 24° WSW 06:19:41 10° SSW visible
13 Dec 10.8 18:44:21 10° S 18:50:38 35° ESE 18:50:38 35° ESE visible
13 Dec 11.3 20:38:18 10° SW 20:42:41 36° WSW 20:42:41 36° WSW visible
